English version Home page |
Updated on March 2, 2014 |
|
軌道要素Epoch 2008 Apr. 4.0 TT = JDT 2454560.5 T 2008 Mar. 20.98945 TT MPC q 2.4102956 (2000.0) P Q n 0.15181919 Peri. 131.85146 -0.62897281 +0.75714810 a 3.4800456 Node 98.29851 -0.75561523 -0.54200595 e 0.3073954 Incl. 10.26931 -0.18286289 -0.36463174 P 6.49 From 455 observations 2008 May 6-2014 Feb. 28, mean residual 0".5.
|
星図
|
光度変化m1 = 16 + 5 logΔ + 10 log r [ ,46] ( 〜2008年 5月 5日) m1 = -32.5 + 5 logΔ + 100 log r(t + 200) [46, ] (2008年 5月 5日〜 )
|
軌道要素はM.P.E.C. 2014-D59に掲載されたものです。
|